TimeEST,TemperatureF,Dew PointF,Humidity,Sea Level PressureIn,VisibilityMPH,Wind Direction,Wind SpeedMPH,Gust SpeedMPH,PrecipitationIn,Events,Conditions,WindDirDegrees,DateUTC
12:15 AM,50.0,50.0,100,30.30,5.0,Calm,Calm,-,0.00,,Clear,0,2013-01-29 05:15:00
12:35 AM,50.0,50.0,100,30.29,4.0,Calm,Calm,-,0.00,,Clear,0,2013-01-29 05:35:00
12:55 AM,50.0,50.0,100,30.29,3.0,Calm,Calm,-,0.00,,Clear,0,2013-01-29 05:55:00
1:15 AM,50.0,50.0,100,30.29,5.0,Calm,Calm,-,0.00,,Clear,0,2013-01-29 06:15:00
1:35 AM,50.0,50.0,100,30.28,5.0,Calm,Calm,-,0.00,,Clear,0,2013-01-29 06:35:00
1:55 AM,50.0,50.0,100,30.28,5.0,Calm,Calm,-,0.00,,Clear,0,2013-01-29 06:55:00
2:15 AM,50.0,50.0,100,30.28,3.0,Calm,Calm,-,0.00,,Scattered Clouds,0,2013-01-29 07:15:00
2:35 AM,50.0,50.0,100,30.27,4.0,Calm,Calm,-,0.00,,Mostly Cloudy,0,2013-01-29 07:35:00
2:55 AM,50.0,50.0,100,30.27,1.0,Calm,Calm,-,0.00,,Overcast,0,2013-01-29 07:55:00
3:15 AM,50.0,50.0,100,30.27,1.2,Calm,Calm,-,0.00,,Mostly Cloudy,0,2013-01-29 08:15:00
3:55 AM,50.0,50.0,100,30.27,0.2,Calm,Calm,-,0.00,Fog,Fog,0,2013-01-29 08:55:00
4:15 AM,50.0,50.0,100,30.27,0.2,Calm,Calm,-,0.00,Fog,Fog,0,2013-01-29 09:15:00
4:35 AM,50.0,50.0,100,30.26,1.8,Calm,Calm,-,0.00,,Mostly Cloudy,0,2013-01-29 09:35:00
4:55 AM,50.0,50.0,100,30.26,3.0,Calm,Calm,-,0.00,,Scattered Clouds,0,2013-01-29 09:55:00
5:15 AM,50.0,50.0,100,30.27,0.2,Calm,Calm,-,0.00,Fog,Fog,0,2013-01-29 10:15:00
5:35 AM,50.0,50.0,100,30.27,0.2,Calm,Calm,-,0.00,Fog,Fog,0,2013-01-29 10:35:00
6:50 AM,51.8,51.8,100,30.27,0.5,Calm,Calm,-,N/A,Fog,Fog,0,2013-01-29 11:50:00
7:50 AM,51.8,51.8,100,30.28,0.2,Calm,Calm,-,N/A,Fog,Fog,0,2013-01-29 12:50:00
8:50 AM,55.4,-9999,N/A,30.28,3.0,Calm,Calm,-,N/A,,Clear,0,2013-01-29 13:50:00
9:50 AM,62.6,60.8,94,30.28,7.0,Calm,Calm,-,N/A,,Clear,0,2013-01-29 14:50:00
10:50 AM,69.8,60.8,73,30.28,10.0,Calm,Calm,-,N/A,,Clear,0,2013-01-29 15:50:00
11:50 AM,69.8,62.6,78,30.26,10.0,South,4.6,-,N/A,,Partly Cloudy,180,2013-01-29 16:50:00
12:50 PM,68.0,60.8,78,30.23,10.0,South,5.8,-,N/A,,Partly Cloudy,180,2013-01-29 17:50:00
1:50 PM,69.8,62.6,78,30.19,10.0,South,4.6,-,N/A,,Partly Cloudy,170,2013-01-29 18:50:00
2:50 PM,69.8,62.6,78,30.18,10.0,SSE,5.8,-,N/A,,Partly Cloudy,150,2013-01-29 19:50:00
3:50 PM,69.8,62.6,78,30.18,10.0,SSE,5.8,-,N/A,,Clear,160,2013-01-29 20:50:00
4:50 PM,64.4,60.8,88,30.17,10.0,SSE,3.5,-,N/A,,Scattered Clouds,160,2013-01-29 21:50:00
5:05 PM,62.6,60.8,94,30.17,2.0,SSE,3.5,-,N/A,,Overcast,160,2013-01-29 22:05:00
5:50 PM,62.6,60.8,94,30.15,2.0,SSE,3.5,-,N/A,,Overcast,150,2013-01-29 22:50:00
6:50 PM,62.6,62.6,100,30.15,1.8,SSE,4.6,-,N/A,,Overcast,150,2013-01-29 23:50:00
7:50 PM,62.6,62.6,100,30.15,3.0,SSE,4.6,-,N/A,,Overcast,150,2013-01-30 00:50:00
8:15 PM,64.4,64.4,100,30.15,4.0,SE,4.6,-,0.00,,Mostly Cloudy,140,2013-01-30 01:15:00
8:35 PM,64.4,64.4,100,30.15,5.0,SSE,6.9,-,0.00,,Mostly Cloudy,150,2013-01-30 01:35:00
8:55 PM,64.4,64.4,100,30.15,5.0,SSE,4.6,-,0.00,,Mostly Cloudy,150,2013-01-30 01:55:00
9:15 PM,64.4,64.4,100,30.15,5.0,SSE,6.9,-,0.00,,Scattered Clouds,150,2013-01-30 02:15:00
9:35 PM,64.4,64.4,100,30.15,5.0,SSE,4.6,-,0.00,,Partly Cloudy,150,2013-01-30 02:35:00
9:55 PM,64.4,64.4,100,30.15,5.0,SSE,3.5,-,0.00,,Partly Cloudy,150,2013-01-30 02:55:00
10:15 PM,64.4,64.4,100,30.15,5.0,SSE,4.6,-,0.00,,Mostly Cloudy,160,2013-01-30 03:15:00
10:35 PM,64.4,64.4,100,30.15,5.0,South,4.6,-,0.00,,Partly Cloudy,170,2013-01-30 03:35:00
10:55 PM,64.4,64.4,100,30.16,5.0,South,4.6,-,0.00,,Clear,180,2013-01-30 03:55:00
11:15 PM,64.4,64.4,100,30.16,5.0,South,4.6,-,0.00,,Clear,170,2013-01-30 04:15:00
11:35 PM,64.4,64.4,100,30.15,5.0,SSE,5.8,-,0.00,,Clear,160,2013-01-30 04:35:00
11:55 PM,64.4,64.4,100,30.14,7.0,SSE,8.1,-,0.00,,Clear,160,2013-01-30 04:55:00